Flag for Germany Weather past 2 weeks in Bitterfeld-Wolfen, Saxony-Anhalt, Germany

Now
54 °F

Fog.


Feels Like: 52 °F
Forecast: 51 / 65 °F
Wind: 6 mph from Southwest

Location: Leipzig-Schkeuditz

Current Time: Sep 4, 2015 at 3:50:21 AM

Latest Report: Sep 4, 2015 at 3:20 AM


Visibility: 0 mi

Pressure: 29.95 "Hg

Humidity: 100%

Dew point: 54 °F

Location of Bitterfeld-WolfenLocation

Historic Weather in Bitterfeld-Wolfen — Graph

°F

Bitterfeld-Wolfen temperature yesterday

Maximum temperature yesterday: 63 °F (at 1:50 PM)
Minimum temperature yesterday: 55 °F (at 12:20 AM)
Average temperature yesterday: 59 °F

Past Weeks' High & Low Weather Summary

 TemperatureHumidityPressure
High91 °F (Aug 31, 2:20 PM)100% (Aug 20, 2:20 AM)30.30 "Hg (Aug 20, 2:20 AM)
Low52 °F (Sep 2, 6:20 AM)32% (Aug 22, 4:20 PM)29.68 "Hg (Aug 24, 7:20 PM)
Average67 °F74%30.01 "Hg
* Reported Aug 20 2:20 AM — Sep 4 2:50 AM, Bitterfeld-Wolfen, Weather by CustomWeather, © 2015

Note: Actual official high and low records may vary slightly from our data, if they occured in-between our weather recording intervals... More about our weather records

Advertising

Bitterfeld-Wolfen weather history for previous 24 hours

 ConditionsComfort  
Time TempWeatherWind HumidityBarometerVisibility
2:50 AM
Fri, Sep 4
54 °FDense fog.5 mph100%29.95 "Hg0 mi
2:20 AM54 °FLight fog.2 mph100%29.95 "Hg0 mi
1:50 AM54 °FFog.3 mph100%29.95 "Hg1 mi
1:20 AM55 °FFog.No wind94%29.95 "Hg2 mi
12:50 AM55 °FFog.No wind100%29.95 "Hg3 mi
12:20 AM57 °FPartly cloudy.3 mph100%29.95 "Hg5 mi
11:20 PM
Thu, Sep 3
57 °FClear.3 mph94%29.95 "Hg10 mi
10:50 PM57 °FClear.2 mph94%29.95 "Hg10 mi
10:20 PM59 °FPartly cloudy.5 mph94%29.95 "HgN/A
9:50 PM59 °FPassing clouds.3 mph94%29.95 "HgN/A
9:20 PM59 °FPassing clouds.7 mph100%29.95 "HgN/A
8:50 PM59 °FPartly sunny.5 mph94%29.95 "HgN/A
8:20 PM59 °FScattered clouds.2 mph94%29.92 "HgN/A
7:50 PM61 °FBroken clouds.5 mph88%29.92 "HgN/A
7:20 PM61 °FBroken clouds.7 mph94%29.92 "HgN/A
6:50 PM63 °FPartly sunny.7 mph83%29.92 "HgN/A
6:20 PM63 °FPartly sunny.6 mph83%29.92 "HgN/A
5:20 PM63 °FLight rain. Partly sunny.6 mph83%29.92 "HgN/A
4:50 PM63 °FBroken clouds.5 mph77%29.92 "HgN/A
4:20 PM63 °FBroken clouds.3 mph77%29.92 "HgN/A
3:50 PM63 °FBroken clouds.5 mph83%29.92 "HgN/A
3:20 PM63 °FPartly sunny.5 mph83%29.92 "HgN/A
2:50 PM63 °FBroken clouds.5 mph83%29.95 "HgN/A
2:20 PM61 °FBroken clouds.5 mph88%29.95 "HgN/A
1:50 PM63 °FLight rain. Broken clouds.7 mph88%29.95 "HgN/A
1:20 PM61 °FMore clouds than sun.7 mph88%29.95 "HgN/A
12:50 PM61 °FMore clouds than sun.8 mph88%29.95 "HgN/A
12:20 PM61 °FBroken clouds.7 mph88%29.95 "HgN/A
11:50 AM61 °FBroken clouds.6 mph88%29.95 "HgN/A
11:20 AM59 °FBroken clouds.6 mph94%29.95 "HgN/A
10:50 AM57 °FBroken clouds.3 mph94%29.95 "HgN/A
10:20 AM57 °FLight rain. Partly sunny.6 mph94%29.98 "HgN/A
9:50 AM57 °FBroken clouds.6 mph94%29.98 "HgN/A
9:20 AM57 °FSprinkles. Broken clouds.8 mph100%29.95 "HgN/A
8:50 AM55 °FSprinkles. Partly sunny.5 mph100%29.95 "Hg6 mi
8:20 AM55 °FRain showers. Partly sunny.9 mph100%29.98 "Hg2 mi
7:50 AM57 °FSprinkles. Broken clouds.8 mph94%29.92 "HgN/A
7:20 AM57 °FSprinkles. Partly cloudy.9 mph100%29.92 "HgN/A
6:20 AM57 °FRain showers. Partly cloudy.6 mph88%29.95 "HgN/A
5:20 AM55 °FPartly cloudy.5 mph94%29.95 "HgN/A
4:50 AM55 °FPassing clouds.5 mph94%29.95 "HgN/A
4:20 AM57 °FClear.5 mph88%29.95 "Hg10 mi
3:50 AM57 °FClear.3 mph88%29.95 "Hg10 mi
3:20 AM57 °FClear.6 mph88%29.95 "Hg10 mi
Weather by CustomWeather, © 2015

See weather overviewHow to use our weather pages